Content
SEND FEEDBACK

Daily
Averages
Monthly
Summary
United States of America

HANALEI, HAWAII


Home > North America > United States > Hawaii
Elevation: 14 feet     Latitude: 22 02N     Longitude: 159 47W

WEATHER
 
SELECT A DAY
Number of Records: 72,217;   Date Range: 1/3/95 - 7/23/14
 
SHARE

PRINT THIS DATA

[ ← Previous Day ]
WEATHER ALMANAC - FEBRUARY 13, 2013
[ Next Day → ]
[ °C ]   °F
Weather ElementAverageHighLow
Temperature71.3 °F78.1 °F (11:56 am)63 °F (2:56 am)
Dewpoint58.3 °F64 °F (8:56 pm)54 °F (8:56 am)
Humidity64.8 %87 % (11:56 pm)46 % (11:56 am)
Barometer30.10 in30.15 in (8:56 am)30.04 in (2:56 pm)
Wind Speed5.8 mph12.7 mph (8:56 pm)
Weather ElementAverage
Visibility10 mi
Wind DirectionSSE (142.2 °)

Weather ElementTotal
Precipitation---
Cooling Degree Days5.6 (Base 65)
Growing Degree Days20.6 (Base 50)
Averaged from 23 records on February 13, 2013
WEATHER CONDITIONS BREAKOUT
WIND DIRECTION BREAKOUT
WEATHER BY HOUR - FEBRUARY 13, 2013
[ °C ]   °F
Local TimeTemperatureDewpointHumidityBarometerVisibilityWind DirectionWind SpeedGust SpeedPrecipitationEventsConditions
1:56 AM64.9 °F55.9 °F73 %30.13 in10.0 miNE (40°)4.6 mphClear
2:56 AM63.0 °F55.9 °F78 %30.12 in10.0 miENE (60°)5.8 mphClear
3:56 AM66.0 °F57.9 °F75 %30.12 in10.0 miEast (80°)6.9 mphMostly Cloudy
4:56 AM66.9 °F60.1 °F79 %30.11 in10.0 miEast (80°)3.5 mphOvercast
5:56 AM66.9 °F55.0 °F66 %30.11 in10.0 miENE (70°)4.6 mphMostly Cloudy
6:56 AM64.9 °F55.9 °F73 %30.13 in10.0 miEast (90°)4.6 mphClear
7:56 AM66.9 °F57.9 °F73 %30.14 in10.0 miCalmPartly Cloudy
8:56 AM75.0 °F54.0 °F48 %30.15 in10.0 miNorth (360°)3.5 mphClear
9:56 AM75.0 °F54.0 °F48 %30.15 in10.0 miNorth (350°)3.5 mphMostly Cloudy
10:56 AM73.9 °F55.9 °F53 %30.14 in10.0 miWSW (240°)4.6 mphMostly Cloudy
11:56 AM78.1 °F55.9 °F46 %30.12 in10.0 miNNW (330°)8.1 mphPartly Cloudy
12:56 PM77.0 °F55.9 °F48 %30.09 in10.0 miWSW (250°)6.9 mphPartly Cloudy
1:56 PM77.0 °F59.0 °F54 %30.07 in10.0 miSW (220°)11.5 mphScattered Clouds
2:56 PM77.0 °F59.0 °F54 %30.04 in10.0 miWSW (240°)10.4 mphMostly Cloudy
3:56 PM75.9 °F59.0 °F56 %30.04 in10.0 miWest (260°)10.4 mphMostly Cloudy
4:56 PM75.9 °F59.0 °F56 %30.05 in10.0 miWest (270°)8.1 mphPartly Cloudy
5:56 PM75.9 °F59.0 °F56 %30.06 in10.0 miCalmPartly Cloudy
6:56 PM73.0 °F60.1 °F64 %30.07 in10.0 miNNE (30°)5.8 mphOvercast
7:56 PM71.1 °F62.1 °F73 %30.10 in10.0 miNNE (20°)6.9 mphPartly Cloudy
8:56 PM72.0 °F64.0 °F76 %30.12 in10.0 miNorth (10°)12.7 mphClear
9:56 PM70.0 °F63.0 °F78 %30.12 in10.0 miNE (50°)3.5 mphPartly Cloudy
10:56 PM68.0 °F60.1 °F76 %30.11 in10.0 miSSE (150°)3.5 mphOvercast
11:56 PM66.0 °F62.1 °F87 %30.11 in10.0 miENE (70°)3.5 mphClear
Hourly data recorded from PHBK, located miles away from Hanalei, Hawaii







STORIES FROM OUR PARTNERS